STARLINK-3801, 52356

Orbit data source: Space-Track

STARLINK-3801, 52356 is a payload satellite owned by SpaceX/Seattle (US) in LEO that was launched on Fri, 29 Apr 2022 UTC via an FALCON 9 launch vehicle from the Air Force Eastern Test Range (AFETR). Payload-class satellites include a variety of spacecraft equipped with specific instruments for various scientific and technological missions. These include communications satellites like Starlink; space stations such as the ISS; scientific satellites like the Hubble; Earth observation satellites from companies like Planet Labs, Umbra, and HawkEye 360; GPS; miniature CubeSats for education and research; and military/defense satellites.

Loading next visibility...
Identifier
52356, 2022-045AB
Orbit
LEO
Country
Flag of USUS
Related business
Manufacturer
SpaceX/Seattle
Mission
Operational Commercial Communications
Bus & Motor
STARLINK, Unknown motor
Mass
297 kg wet, ~275 kg dry
Launch date (UTC)
2022-04-29 (4 years ago)
Launch vehicle
FALCON 9
Launch site
Air Force Eastern Test Range (AFETR)
Object type
Payload
Rocket body
Debris
Shape & HBR
Box + 1 Pan, 10.1 m
Radar Cross Section
11.087 m², Large (>1 m²)

Expand to show TLE details & history
Last TLE update: 16 hours ago

TLE from 16 hours ago
0 STARLINK-3801
1 52356U 22045AB  25349.95044489  .00000577  00000-0  54329-4 0  9996
2 52356  53.2161 215.0681 0001443  88.2406 271.8752 15.08836667203146
Epoch: 2025-12-15T22:48Z
TLE epoch observation values (Epoch: 2025-12-15T22:48:38.438Z)
Latitude
0.00002°
Longitude
148.0663°
Altitude
540.618 km
Speed
7.593 km/s
True Right ascension
14h 20m 16s
True Declination
0° 00' 00"
Sunlit
Object was in daylight at epoch
Visualization orbit readout
Latitude
Unknown
Longitude
Unknown
Altitude
Unknown
Speed
Unknown
Apparent Right ascension
Unknown
Apparent Declination
Unknown
Sunlit
N/A
Visualization observer readout
Local Sidereal Time
13:48:18
Azimuth
Unknown
Elevation
Unknown
Doppler factor
Unknown
Orbital elements
Apogee altitude
540.997 km
Perigee altitude
539 km
Semi-major axis
6,918.136 km
Eccentricity
0.00014
Inclination
53.2161°
RAAN
215.0681°
Arg. of periapsis
88.2406°
True anomaly
271.85867°
Mean anomaly
271.8752°
Eccentric anomaly
271.86694°
Mean motion
3.77189 °/min
Orbital period
95.44 mins
BSTAR
0.000054329
Loading maneuver chart data...
Computing Atmospheric mass density...

Documentation

Showing up to 5 results
|